Regional Weather Roundup
Issued by NWS

Home | Current Version | Previous Version | Graphics & Text | Print | Product List | Glossary On
Versions: 1 2 3 4 5 6 7 8 9 10 11 12 13 14 15 16 17 18 19 20 21 22 23 24 25 26 27 28 29 30 31 32 33 34 35 36 37 38 39 40 41 42 43 44 45 46 47 48 49 50
813
ASUS43 KFSD 090510
RWRSD

WEATHER ROUNDUP FOR SOUTH DAKOTA
NATIONAL WEATHER SERVICE SIOUX FALLS SD
1100 PM CST THU DEC 08 2016

NOTE: "FAIR" INDICATES FEW OR NO CLOUDS BELOW 12,000 FEET WITH NO
SIGNIFICANT WEATHER AND/OR OBSTRUCTIONS TO VISIBILITY.


SDZ001>005-009-010-012>017-090600-
NORTHWEST AND NORTH CENTRAL SOUTH DAKOTA

CITY           SKY/WX    TMP DP  RH WIND       PRES   REMARKS
BUFFALO          N/A     -5 -11  75 E3        30.34F
FAITH            N/A     -7  -8  96 N7        30.49  WCI -21
MOBRIDGE       CLOUDY    -3  -9  75 NW3       30.55F
$$

SDZ012>016-024>037-041>051-057-063-072>074-090600-
SOUTHWEST AND SOUTH CENTRAL SOUTH DAKOTA

CITY           SKY/WX    TMP DP  RH WIND       PRES   REMARKS
RAPID CTY ARPT CLOUDY    -4 -10  75 CALM      30.40F
PIERRE         CLOUDY     3  -2  79 NE5       30.59S WCI  -6
CUSTER         CLOUDY    -3 -10  72 CALM      30.15F
ELLSWORTH AFB  CLOUDY     1  -6  71 SE6       30.38F WCI -11
PHILIP         CLOUDY    -7 -12  79 NE3       30.54F
PINE RIDGE     CLOUDY    -3  -9  75 NW3       30.38F
SPEARFISH      FAIR      -6 -13  71 SW5       30.30F WCI -17
WINNER         FAIR       1  -5  75 CALM      30.57F
$$

SDZ004>011-016>023-039-040-090600-
NORTHEAST SOUTH DAKOTA

CITY           SKY/WX    TMP DP  RH WIND       PRES   REMARKS
ABERDEEN       CLEAR     -6 -10  83 W7        30.63R WCI -20
WATERTOWN      CLEAR      0  -4  83 NW8       30.53F WCI -14
SISSETON         N/A      1  -5  75 NW10      30.59S WCI -15
$$

SDZ017-020-022-023-036>040-048>070-090600-
SOUTHEAST SOUTH DAKOTA

CITY           SKY/WX    TMP DP  RH WIND       PRES   REMARKS
SIOUX FALLS    CLEAR      5   2  87 CALM      30.59S
HURON          CLEAR     -2  -5  87 NW8       30.63S WCI -17
CHAMBERLAIN    FLURRIES   6   2  85 NW6       30.61S WCI  -5
MITCHELL       CLEAR      2  -2  83 NW7       30.65S WCI -11
YANKTON        CLEAR      7   0  72 NW13      30.63S WCI  -9
$$

ABBREVIATIONS USED IN REMARKS
   TC - TEMPERATURE IN CELSIUS
  WCI - WIND CHILL INDEX
   HX - HEAT INDEX
  VSB - VISIBILITY





USA.gov is the U.S. government's official web portal to all federal, state and local government web resources and services.